Regional Weather Roundup
Issued by NWS

Home | Current Version | Previous Version | Text Only | Print | Product List | Glossary On
Versions: 1 2 3 4 5 6 7 8 9 10 11 12 13 14 15 16 17 18 19 20 21 22 23 24 25 26 27 28 29 30 31 32 33 34 35 36 37 38 39 40 41 42 43 44 45 46 47 48 49 50
349
ASUS44 KJAN 302003
RWRMS

MISSISSIPPI HOURLY WEATHER ROUNDUP
NATIONAL WEATHER SERVICE JACKSON MS
300 PM CDT MON MAR 30 2015

NOTE: "FAIR: INDICATES FEW OR NO CLOUDS BELOW 12,000 FEET WITH NO
SIGNIFICANT WEATHER AND/OR OBSTRUCTIONS TO VISIBILITY.

MSZ001>002-007>008-010>013-018>021-025>028-034>036-302100-
NORTHWEST MISSISSIPPI

CITY           SKY/WX    TMP DP  RH WIND       PRES   REMARKS
CLARKSDALE     FAIR      68  48  49 NE6       30.18F
CLEVELAND      FAIR      73  51  45 SW5       30.16F
GREENWOOD      FAIR      77  46  33 VRB5      30.15F
GREENVILLE     FAIR      74  48  39 VRB3      30.15F
OLIVE BRANCH   SUNNY     68  43  40 CALM      30.17F
OXFORD         FAIR      72  41  33 CALM      30.18F
TUNICA         FAIR      70  45  40 SW6       30.18F
$$

MSZ003>006-009-014>017-022>024-029>033-037>039-302100-
NORTHEAST MISSISSIPPI

CITY           SKY/WX    TMP DP  RH WIND       PRES   REMARKS
COLUMBUS AFB   FAIR      75  44  32 NW8       30.15F
CORINTH        FAIR      68  39  34 VRB5      30.16F
GOLDN TRIANGLE MOSUNNY   75  50  41 CALM      30.16F
STARKVILLE     FAIR      72  50  46 CALM      30.16F
TUPELO         FAIR      71  44  37 VRB3      30.16F
$$

MSZ040-058-302100-
CENTRAL MISSISSIPPI

CITY           SKY/WX    TMP DP  RH WIND       PRES   REMARKS
JACKSON INTL   PTSUNNY   77  60  55 NW8       30.16F
JACKSON HAWKNS FAIR      75  60  59 VRB5      30.16F
MERIDIAN KEY   CLOUDY    76  60  57 W9G17     30.16F
MERIDIAN NAS   NOT AVBL
RAYMOND        FAIR      77  73  88 W10       30.15F
VICKSBURG      CLOUDY    76  61  59 VRB3      30.16F
$$

MSZ059>079-302100-
SOUTH MISSISSIPPI

CITY           SKY/WX    TMP DP  RH WIND       PRES   REMARKS
BROOKHAVEN     FAIR      81  57  44 W8        30.17F
HATTIESBURG    FAIR      80  54  40 W8        30.16F
MCCOMB         FAIR      81  55  40 W13G18    30.16F
NATCHEZ        PTSUNNY   79  59  50 W7        30.16F
PINE BELT      FAIR      81  52  36 NW6       30.17F
$$

MSZ080>082-302100-
COASTAL MISSISSIPPI

CITY           SKY/WX    TMP DP  RH WIND       PRES   REMARKS
BILOXI         FAIR      76  67  72 SW14G21   30.16F
PASCAGOULA     FAIR      78  64  61 S10G20    30.17F
GULFPORT       FAIR      79  62  56 S10G24    30.15F
$$



USA.gov is the U.S. government's official web portal to all federal, state and local government web resources and services.